This demonstration page uses our WeatherBlox Daily Observations layout. Learn more.

Left ArrowRight Arrow

41.55636, -103.73856

Hourly Observations for September 30, 2016

Temp ( °F °C ) Dew Point ( °F °C ) Humidity (%) Winds ( mph kmh ) Pressure ( in mb ) Visibility ( mi km ) Precip ( " mm )
12:53 am 00:53 Clear 53 11.7 42 5.6 66 66 E 8 13 30.12 1020 10 16 0.00 0.00
1:53 am 01:53 Clear 52 11.1 41 5 66 66 E 9 15 30.11 1020 10 16 0.00 0.00
2:53 am 02:53 Clear 51 10.6 41 5 69 69 ESE 10 17 30.10 1019 10 16 0.00 0.00
3:53 am 03:53 Clear 48 8.9 40 4.4 74 74 ESE 10 17 30.09 1019 10 16 0.00 0.00
4:53 am 04:53 Clear 47 8.3 40 4.4 77 77 ESE 8 13 30.10 1019 10 16 0.00 0.00
5:53 am 05:53 Clear 46 7.8 40 4.4 79 79 ESE 9 15 30.11 1020 10 16 0.00 0.00
6:53 am 06:53 Sunny 46 7.8 40 4.4 79 79 ESE 9 15 30.12 1020 10 16 0.00 0.00
7:53 am 07:53 Sunny 47 8.3 40 4.4 77 77 E 9 15 30.13 1020 10 16 0.00 0.00
8:53 am 08:53 Sunny 53 11.7 41 5 64 64 SE 7 11 30.13 1020 10 16 0.00 0.00
9:53 am 09:53 Sunny 55 12.8 42 5.6 62 62 SE 6 9 30.13 1020 10 16 0.00 0.00
10:53 am 10:53 Sunny 61 16.1 44 6.7 54 54 VRB 6 9 30.11 1020 10 16 0.00 0.00
11:53 am 11:53 Sunny 61 16.1 45 7.2 56 56 VRB 5 7 30.11 1020 10 16 0.00 0.00
12:53 pm 12:53 Mostly Cloudy with Light Rain 63 17.2 46 7.8 54 54 Calm 30.09 1019 10 16 0.00 0.03
1:53 pm 13:53 Cloudy 65 18.3 48 8.9 54 54 E 3 6 30.06 1018 10 16 0.00 0.03
2:53 pm 14:53 Cloudy 68 20 49 9.4 51 51 SE 9 15 30.05 1018 10 16 0.00 0.00
3:53 pm 15:53 Mostly Cloudy 69 20.6 49 9.4 49 49 ESE 12 19 30.04 1017 10 16 0.00 0.00
4:53 pm 16:53 Mostly Sunny 68 20 48 8.9 49 49 SE 14 22 30.04 1017 10 16 0.00 0.00
5:53 pm 17:53 Sunny 66 18.9 49 9.4 54 54 ESE 9 15 30.05 1018 10 16 0.00 0.00
6:53 pm 18:53 Clear 60 15.6 48 8.9 65 65 ESE 8 13 30.05 1018 10 16 0.00 0.00
7:53 pm 19:53 Clear 56 13.3 48 8.9 75 75 E 7 11 30.06 1018 10 16 0.00 0.00
8:53 pm 20:53 Clear 55 12.8 48 8.9 77 77 E 6 9 30.06 1018 10 16 0.00 0.00
9:53 pm 21:53 Clear 53 11.7 47 8.3 80 80 ESE 7 11 30.06 1018 10 16 0.00 0.00
10:53 pm 22:53 Clear 55 12.8 47 8.3 74 74 ESE 8 13 30.04 1017 10 16 0.00 0.00
11:53 pm 23:53 Clear 53 11.7 47 8.3 80 80 E 7 11 30.04 1017 10 16 0.00 0.00

Powered by AerisWeather